World > North America > United States > South Dakota > Brandon  

Brandon, SD Hourly Weather Updates

Feedback E-mail the Weather

Quick Clicks

Brandon, SD Weather Maps

°F °C°F °C
Brandon Weather Map
UTC Time: 6/19/2024, 20:19
Your Time:

Brandon, SD Regional Weather

Expires:202406192100;;310971
ASUS43 KFSD 192010
RWRFSD

WEATHER ROUNDUP FOR SE SOUTH DAKOTA/SW MINNESOTA/NW IOWA
NATIONAL WEATHER SERVICE SIOUX FALLS SD
300 PM CDT WED JUN 19 2024

NOTE: "FAIR" INDICATES FEW OR NO CLOUDS BELOW 12,000 FEET WITH NO
SIGNIFICANT WEATHER AND OR OBSTRUCTIONS TO VISIBILITY.



SDZ038>040-050-052>070-192100-
SOUTHEAST SOUTH DAKOTA
  
CITY           SKY/WX    TMP DP  RH WIND       PRES   REMARKS
BROOKINGS      PTSUNNY   66  52  60 CALM      30.31F TC  19           
CHAMBERLAIN    MOSUNNY   69  52  55 SE8       30.28F TC  21           
HURON          MOSUNNY   71  48  43 VRB5      30.29F TC  22           
MADISON          N/A     66  55  68 N6        30.30S TC  19           
MITCHELL       PTSUNNY   68  53  58 E5        30.30F TC  20           
SIOUX FALLS    PTSUNNY   71  54  54 NE6       30.29F TC  22           
WINNER         SUNNY     70  53  54 E10G17    30.28F TC  21           
YANKTON          N/A     70  56  61 NE6       30.29S TC  21           
$$


SKY/WX - Weather  TMP - Temperature  DP - Dew Point  RH - Humidity
WIND - Wind Direction/Speed PRES - Barometric Pressure VSB - Visibility
WCI - Wind Chill Index E13G22 Wind - East Wind 13 mph/Gusts of 22 mph

Trending Headlines

Trending Entertainment Headlines

Brandon Radar Loop

Use the map search tool if you want to place a location marker on the radar map...

Brandon Quick Facts

National Two Day Weather Forecast


E-mail the Brandon Weather Forecast

Voice your opinion or tell us about page issues...